COSMOS 2245

Satellite information

Favourite Embed

Satellite Type and Status

PAYLOADIN ORBIT

Key statistics

Satellite COSMOS 2245 at a glance.

Uptime

11905

Days in orbit

Revolutions

≈ 12.6

Per day

Orbit

LEO

Low Earth Orbit

Inclination

82.6

Latest

Satellite identification and parameters

Extended collection of information and parameters for COSMOS 2245.

Object identification

Identified? True

Debris? False

Object name: COSMOS 2245

International designator: 1993-030A

Object number (NORAD): 22646

Object ID (CCSDS): 22646

Country: COMMONWEALTH OF INDEPENDENT STATES (CIS)

Current information (Y/N): Y

RCS size: MEDIUM

Orbital parameters

Period: 113.918 minutes

Inclination: 82.5855 deg

SMA: 7784.326 km

Apoapsis: 1414.647 km

Periapsis: 1397.734 km

RAAN: 69.7907 deg

Eccentricy: 0.00108635

Argument of periapsis: 328.243 deg

Mean anomaly: 87.2035 deg

Mean motion: 12.64070337 rev/day

Mean motion (dot): 0.00000032 rev/day2

B* drag term: 0.00011662416 1/REarth

Two-line elements (TLE)

Creation date: Dec. 12, 2025, 10:14 a.m.

Reference frame: TEME

Reference center: EARTH

Epoch: Dec. 12, 2025, 6:50 a.m. UTC

TLE line 0: 0 COSMOS 2245

TLE line 1: 1 22646U 93030A 25346.28507169 .00000032 00000-0 11662-3 0 9997

TLE line 2: 2 22646 82.5855 69.7907 0010863 328.2430 87.2035 12.64070337503469

Live tracking on map

Real-time ground track for satellite COSMOS 2245.

In-orbit conjunctions

There are no conjunctions computed for COSMOS 2245, at the moment. Check back to stay up to date, as we update our databases every day.

Go to all conjunctions

Associated space launch

Second generation store-dump military communications satellite

COSMOS 2245 was lifted into orbit during the mission ‘Tsiklon-3 | Strela-3 89 to 94’, on board a Tsiklon-3 space rocket.

The launch took place on May 11, 1993, 2:56 p.m. from 32/1.

For more information about the launch, click the button.

Launch to space Tsiklon-3 | Strela-3 89 to 94
Tsiklon-3 | Strela-3 89 to 94

Agency: N/A

Status: Launch Successful

Launch date: May 11, 1993, 2:56 p.m. UTC

Rocket: Tsiklon-3

Launch pad: 32/1

Location: Plesetsk Cosmodrome, Russian Federation

...

Latest news about this satellite

There are no fresh news available about this satellite. Check back as we update our databases every day.


Newsletter sign-up

Weekly statistics, charts and insights to help you stay on top of the space industry.